User: anonymous
Location: Irma
(52.9170°N, 111.2330°W)
Time: 06:38:50
(UTC-06:00)
Language:

deb Chang Zheng 4 - Orbit

View from above orbital plane
View from above orbital plane
View from above satellite
View from above satellite

Ground track
Ground track

The orbit data is extracted from the following two-line orbital elements,

1 20847U 90081K   14232.13467841  .00006092  00000-0  10931-2 0  1529
2 20847 098.5737 038.8740 0023539 098.8424 322.9462 14.66938715253579
Epoch (UTC): 20 August 2014 03:13:56
Eccentricity: 0.0023539
inclination: 98.5737°
perigee height: 654 km
apogee height: 687 km
right ascension of ascending node: 38.8740°
argument of perigee: 98.8424°
revolutions per day: 14.66938715
mean anomaly at epoch: 322.9462°
orbit number at epoch: 25357

The dashed part of the orbit path shows where the satellite is in the earth's shadow,  

DLR